| time (UTC) | temp F | wind direction | speed MPH | gust MPH | rain 1hr in | rain 24hr in | rain mn in | humidity % | barometer mb |
| 20260905201502 | 90 | 199 | 0.0 | 2.0 | 0.00 | 0.49 | 0.49 | 78 | 1013.5 |
| 20260905201001 | 89 | 197 | 0.0 | 2.0 | 0.00 | 0.49 | 0.49 | 82 | 1013.5 |
| 20260905200457 | 88 | 246 | 0.0 | 3.0 | 0.00 | 0.49 | 0.49 | 83 | 1013.4 |
| 20260905195955 | 87 | 120 | 3.0 | 5.0 | 0.00 | 0.49 | 0.49 | 81 | 1013.5 |
| 20260905195451 | 87 | 230 | 1.0 | 4.0 | 0.00 | 0.49 | 0.49 | 84 | 1013.3 |
| 20260905194946 | 87 | 215 | 2.0 | 4.0 | 0.00 | 0.49 | 0.49 | 83 | 1013.5 |
| 20260905194446 | 87 | 234 | 1.0 | 2.0 | 0.00 | 0.49 | 0.49 | 86 | 1013.4 |
| 20260905193940 | 87 | 135 | 0.0 | 4.0 | 0.00 | 0.49 | 0.49 | 86 | 1013.6 |
| 20260905193435 | 87 | 101 | 1.0 | 3.0 | 0.00 | 0.49 | 0.49 | 85 | 1013.5 |
| 20260905192930 | 87 | 147 | 0.0 | 3.0 | 0.00 | 0.49 | 0.49 | 87 | 1013.6 |
| 20260905192425 | 86 | 185 | 1.0 | 6.0 | 0.00 | 0.49 | 0.49 | 89 | 1013.8 |
| 20260905191920 | 82 | 171 | 1.0 | 3.0 | 0.00 | 0.49 | 0.49 | 99 | 1013.8 |
| 20260905191419 | 82 | 186 | 0.0 | 1.0 | 0.00 | 0.49 | 0.49 | 99 | 1014.0 |
| 20260905190914 | 80 | 150 | 1.0 | 3.0 | 0.00 | 0.49 | 0.49 | 99 | 1014.2 |
| 20260905190411 | 80 | 126 | 0.0 | 1.0 | 0.00 | 0.49 | 0.49 | 99 | 1014.3 |
| 20260905185910 | 79 | 138 | 1.0 | 3.0 | 0.00 | 0.49 | 0.49 | 99 | 1014.0 |
| 20260905185406 | 80 | 129 | 0.0 | 2.0 | 0.00 | 0.49 | 0.49 | 99 | 1014.1 |
| 20260905184904 | 80 | 256 | 0.0 | 3.0 | 0.00 | 0.49 | 0.49 | 99 | 1014.1 |
| 20260905184359 | 83 | 68 | 0.0 | 2.0 | 0.00 | 0.49 | 0.49 | 99 | 1014.4 |
| 20260905183857 | 81 | 326 | 0.0 | 2.0 | 0.00 | 0.49 | 0.49 | 99 | 1014.6 |
| 20260905183353 | 82 | 255 | 0.0 | 1.0 | 0.00 | 0.49 | 0.49 | 99 | 1014.6 |
| 20260905182848 | 81 | 230 | 0.0 | 2.0 | 0.00 | 0.49 | 0.49 | 99 | 1014.5 |
| 20260905182347 | 80 | 184 | 1.0 | 2.0 | 0.00 | 0.49 | 0.49 | 99 | 1014.7 |
| 20260905181843 | 81 | 89 | 0.0 | 2.0 | 0.00 | 0.49 | 0.49 | 99 | 1014.6 |
| 20260905181343 | 81 | 235 | 0.0 | 3.0 | 0.00 | 0.49 | 0.49 | 99 | 1014.7 |
| 20260905180841 | 80 | 103 | 0.0 | 2.0 | 0.00 | 0.49 | 0.49 | 99 | 1014.7 |
| 20260905180336 | 78 | 59 | 1.0 | 2.0 | 0.00 | 0.49 | 0.49 | 99 | 1014.8 |
| 20260905175832 | 78 | 210 | 0.0 | 1.0 | 0.00 | 0.49 | 0.49 | 99 | 1015.0 |
| 20260905175331 | 77 | 89 | 0.0 | 0.0 | 0.00 | 0.49 | 0.49 | 99 | 1015.0 |
| 20260905174827 | 77 | 224 | 0.0 | 2.0 | 0.00 | 0.49 | 0.49 | 99 | 1015.4 |
| 20260905174323 | 76 | 160 | 0.0 | 3.0 | 0.00 | 0.49 | 0.49 | 99 | 1015.3 |
| 20260905173818 | 76 | 197 | 0.0 | 4.0 | 0.05 | 0.49 | 0.49 | 99 | 1015.3 |
| 20260905173314 | 76 | 148 | 1.0 | 4.0 | 0.14 | 0.48 | 0.48 | 99 | 1015.6 |
| 20260905172814 | 75 | 204 | 1.0 | 3.0 | 0.31 | 0.48 | 0.48 | 99 | 1015.5 |
| 20260905172312 | 75 | 147 | 3.0 | 6.0 | 0.57 | 0.46 | 0.46 | 99 | 1015.8 |
| 20260905171809 | 76 | 148 | 2.0 | 6.0 | 0.57 | 0.42 | 0.42 | 99 | 1015.7 |
| 20260905171305 | 76 | 132 | 6.0 | 13.0 | 0.33 | 0.35 | 0.35 | 99 | 1015.9 |
| 20260905170801 | 77 | 140 | 3.0 | 9.0 | 0.14 | 0.31 | 0.31 | 99 | 1015.9 |
| 20260905170257 | 78 | 134 | 3.0 | 3.0 | 0.14 | 0.29 | 0.29 | 99 | 1016.0 |
| 20260905165755 | 78 | 143 | 7.0 | 9.0 | 0.35 | 0.28 | 0.28 | 99 | 1015.9 |
| 20260905165252 | 79 | 147 | 2.0 | 3.0 | 0.59 | 0.26 | 0.26 | 99 | 1015.8 |
| 20260905164751 | 79 | 201 | 2.0 | 3.0 | 0.64 | 0.22 | 0.22 | 99 | 1015.6 |
| 20260905164246 | 79 | 190 | 2.0 | 6.0 | 0.47 | 0.16 | 0.16 | 97 | 1015.5 |
| 20260905163742 | 83 | 135 | 4.0 | 8.0 | 0.12 | 0.10 | 0.10 | 94 | 1015.5 |
| 20260905163238 | 84 | 213 | 0.0 | 2.0 | 0.14 | 0.08 | 0.08 | 91 | 1015.4 |
| 20260905162734 | 84 | 141 | 1.0 | 5.0 | 0.47 | 0.08 | 0.08 | 88 | 1015.5 |
| 20260905162233 | 87 | 217 | 0.0 | 1.0 | 0.31 | 0.05 | 0.05 | 86 | 1015.5 |
| 20260905161728 | 88 | 268 | 3.0 | 4.0 | 0.00 | 0.00 | 0.00 | 79 | 1015.4 |
| 20260905161227 | 88 | 313 | 0.0 | 4.0 | 0.00 | 0.00 | 0.00 | 79 | 1015.3 |
| 20260905160725 | 89 | 336 | 0.0 | 5.0 | 0.00 | 0.00 | 0.00 | 76 | 1015.6 |
| 20260905160220 | 91 | 331 | 0.0 | 4.0 | 0.00 | 0.00 | 0.00 | 73 | 1015.5 |
| 20260905155714 | 90 | 280 | 3.0 | 8.0 | 0.00 | 0.00 | 0.00 | 74 | 1015.3 |
| 20260905155213 | 90 | 257 | 0.0 | 6.0 | 0.00 | 0.00 | 0.00 | 76 | 1015.5 |
| 20260905154707 | 91 | 280 | 2.0 | 5.0 | 0.00 | 0.00 | 0.00 | 76 | 1015.4 |
| 20260905154203 | 89 | 269 | 0.0 | 2.0 | 0.00 | 0.00 | 0.00 | 79 | 1015.2 |
| 20260905153659 | 90 | 269 | 0.0 | 2.0 | 0.00 | 0.00 | 0.00 | 78 | 1015.2 |
| 20260905153154 | 90 | 326 | 0.0 | 0.0 | 0.00 | 0.00 | 0.00 | 78 | 1015.4 |
| 20260905152649 | 90 | 195 | 0.0 | 2.0 | 0.00 | 0.00 | 0.00 | 79 | 1015.4 |
| 20260905152144 | 90 | 333 | 0.0 | 1.0 | 0.00 | 0.00 | 0.00 | 78 | 1015.4 |
| 20260905151638 | 90 | 329 | 0.0 | 1.0 | 0.00 | 0.00 | 0.00 | 79 | 1015.3 |
| 20260905151134 | 89 | 223 | 0.0 | 2.0 | 0.00 | 0.00 | 0.00 | 78 | 1015.2 |
| 20260905150629 | 90 | 232 | 0.0 | 3.0 | 0.00 | 0.00 | 0.00 | 77 | 1015.3 |
| 20260905150127 | 92 | 284 | 0.0 | 2.0 | 0.00 | 0.00 | 0.00 | 77 | 1015.2 |
| 20260905145626 | 89 | 237 | 1.0 | 4.0 | 0.00 | 0.00 | 0.00 | 80 | 1015.3 |
| 20260905145125 | 90 | 273 | 1.0 | 4.0 | 0.00 | 0.00 | 0.00 | 78 | 1015.2 |
| 20260905144620 | 91 | 275 | 2.0 | 3.0 | 0.00 | 0.00 | 0.00 | 77 | 1015.3 |
| 20260905144119 | 92 | 274 | 2.0 | 3.0 | 0.00 | 0.00 | 0.00 | 77 | 1015.4 |
| 20260905143614 | 90 | 343 | 0.0 | 3.0 | 0.00 | 0.00 | 0.00 | 78 | 1015.4 |
| 20260905143109 | 90 | 245 | 0.0 | 2.0 | 0.00 | 0.00 | 0.00 | 79 | 1015.5 |
| 20260905142608 | 88 | 284 | 2.0 | 4.0 | 0.00 | 0.00 | 0.00 | 81 | 1015.3 |
| 20260905142102 | 91 | 355 | 0.0 | 3.0 | 0.00 | 0.00 | 0.00 | 78 | 1015.2 |
| 20260905141601 | 92 | 326 | 0.0 | 2.0 | 0.00 | 0.00 | 0.00 | 76 | 1015.4 |
| 20260905141058 | 91 | 257 | 0.0 | 3.0 | 0.00 | 0.00 | 0.00 | 80 | 1015.4 |
| 20260905140553 | 91 | 89 | 0.0 | 1.0 | 0.00 | 0.00 | 0.00 | 80 | 1015.2 |
| 20260905140052 | 88 | 263 | 0.0 | 2.0 | 0.00 | 0.00 | 0.00 | 84 | 1015.0 |
| 20260905135548 | 87 | 304 | 0.0 | 3.0 | 0.00 | 0.00 | 0.00 | 85 | 1015.2 |
| 20260905135047 | 87 | 315 | 1.0 | 4.0 | 0.00 | 0.00 | 0.00 | 86 | 1015.1 |
| 20260905134542 | 90 | 4 | 0.0 | 1.0 | 0.00 | 0.00 | 0.00 | 82 | 1015.2 |
| 20260905134041 | 90 | 315 | 0.0 | 2.0 | 0.00 | 0.00 | 0.00 | 82 | 1015.1 |
| 20260905133537 | 88 | 339 | 0.0 | 1.0 | 0.00 | 0.00 | 0.00 | 87 | 1015.1 |
| 20260905133037 | 86 | 269 | 0.0 | 2.0 | 0.00 | 0.00 | 0.00 | 88 | 1015.5 |
| 20260905132537 | 86 | 315 | 0.0 | 1.0 | 0.00 | 0.00 | 0.00 | 90 | 1015.1 |
| 20260905132031 | 84 | 304 | 0.0 | 1.0 | 0.00 | 0.00 | 0.00 | 91 | 1015.1 |
| 20260905131527 | 84 | 212 | 0.0 | 1.0 | 0.00 | 0.00 | 0.00 | 93 | 1015.2 |
| 20260905131022 | 83 | 230 | 0.0 | 0.0 | 0.00 | 0.00 | 0.00 | 93 | 1015.0 |
| 20260905130521 | 82 | 329 | 0.0 | 0.0 | 0.00 | 0.00 | 0.00 | 96 | 1014.8 |
| 20260905130017 | 81 | 302 | 0.0 | 1.0 | 0.00 | 0.00 | 0.00 | 97 | 1014.9 |
| 20260905125516 | 80 | 15 | 0.0 | 2.0 | 0.00 | 0.00 | 0.00 | 99 | 1014.8 |
| 20260905125011 | 79 | 5 | 1.0 | 2.0 | 0.00 | 0.00 | 0.00 | 99 | 1014.6 |
| 20260905124508 | 79 | 180 | 0.0 | 0.0 | 0.00 | 0.00 | 0.00 | 99 | 1014.5 |
| 20260905124003 | 78 | 309 | 0.0 | 1.0 | 0.00 | 0.00 | 0.00 | 99 | 1014.5 |
| 20260905123459 | 78 | 225 | 0.0 | 1.0 | 0.00 | 0.00 | 0.00 | 99 | 1014.5 |
| 20260905122954 | 78 | 221 | 0.0 | 2.0 | 0.00 | 0.00 | 0.00 | 99 | 1014.6 |
| 20260905122449 | 77 | 243 | 0.0 | 1.0 | 0.00 | 0.00 | 0.00 | 99 | 1014.7 |
| 20260905121944 | 77 | 255 | 0.0 | 2.0 | 0.00 | 0.00 | 0.00 | 99 | 1014.6 |
| 20260905121439 | 77 | 190 | 0.0 | 1.0 | 0.00 | 0.00 | 0.00 | 99 | 1014.4 |
| 20260905120939 | 77 | 186 | 0.0 | 1.0 | 0.00 | 0.00 | 0.00 | 99 | 1014.2 |
| 20260905120433 | 77 | 174 | 0.0 | 0.0 | 0.00 | 0.00 | 0.00 | 99 | 1014.2 |
| 20260905115928 | 77 | 230 | 0.0 | 0.0 | 0.00 | 0.00 | 0.00 | 99 | 1014.1 |
| 20260905115428 | 77 | 230 | 0.0 | 0.0 | 0.00 | 0.00 | 0.00 | 99 | 1014.3 |
| 20260905114923 | 77 | 322 | 0.0 | 0.0 | 0.00 | 0.00 | 0.00 | 99 | 1014.2 |
| 20260905114423 | 77 | 104 | 0.0 | 0.0 | 0.00 | 0.00 | 0.00 | 99 | 1013.9 |
| 20260905113921 | 77 | 209 | 0.0 | 1.0 | 0.00 | 0.00 | 0.00 | 99 | 1014.1 |
| 20260905113417 | 77 | 224 | 0.0 | 1.0 | 0.00 | 0.00 | 0.00 | 99 | 1014.0 |
| 20260905112912 | 77 | 212 | 0.0 | 2.0 | 0.00 | 0.00 | 0.00 | 99 | 1013.9 |
| 20260905112407 | 77 | 117 | 0.0 | 1.0 | 0.00 | 0.00 | 0.00 | 99 | 1013.8 |
| 20260905111902 | 77 | 341 | 0.0 | 1.0 | 0.00 | 0.00 | 0.00 | 99 | 1013.8 |
| 20260905111356 | 77 | 209 | 0.0 | 0.0 | 0.00 | 0.00 | 0.00 | 99 | 1013.7 |
| 20260905110856 | 77 | 209 | 0.0 | 0.0 | 0.00 | 0.00 | 0.00 | 99 | 1013.8 |
| 20260905110350 | 77 | 180 | 0.0 | 1.0 | 0.00 | 0.00 | 0.00 | 99 | 1013.6 |
| 20260905105845 | 77 | 242 | 0.0 | 1.0 | 0.00 | 0.00 | 0.00 | 99 | 1013.6 |
| 20260905105344 | 77 | 230 | 0.0 | 1.0 | 0.00 | 0.00 | 0.00 | 99 | 1013.5 |
| 20260905104839 | 77 | 242 | 0.0 | 1.0 | 0.00 | 0.00 | 0.00 | 99 | 1013.5 |
| 20260905104335 | 77 | 142 | 0.0 | 0.0 | 0.00 | 0.00 | 0.00 | 99 | 1013.6 |
| 20260905103835 | 77 | 235 | 0.0 | 1.0 | 0.00 | 0.00 | 0.00 | 99 | 1013.4 |
| 20260905103330 | 77 | 50 | 0.0 | 0.0 | 0.00 | 0.00 | 0.00 | 99 | 1013.7 |
| 20260905102826 | 78 | 50 | 0.0 | 1.0 | 0.00 | 0.00 | 0.00 | 99 | 1013.6 |
| 20260905102323 | 78 | 217 | 0.0 | 2.0 | 0.00 | 0.00 | 0.00 | 99 | 1013.5 |
| 20260905101822 | 78 | 162 | 0.0 | 1.0 | 0.00 | 0.00 | 0.00 | 99 | 1013.7 |
| 20260905101321 | 78 | 218 | 1.0 | 1.0 | 0.00 | 0.00 | 0.00 | 99 | 1013.8 |
| 20260905100815 | 77 | 157 | 0.0 | 1.0 | 0.00 | 0.00 | 0.00 | 99 | 1013.6 |
| 20260905100311 | 78 | 230 | 0.0 | 1.0 | 0.00 | 0.00 | 0.00 | 99 | 1013.8 |
| 20260905095810 | 78 | 246 | 0.0 | 1.0 | 0.00 | 0.00 | 0.00 | 99 | 1013.5 |
| 20260905095306 | 77 | 117 | 0.0 | 1.0 | 0.00 | 0.00 | 0.00 | 99 | 1013.6 |
| 20260905094759 | 78 | 230 | 0.0 | 0.0 | 0.00 | 0.00 | 0.00 | 99 | 1013.5 |
| 20260905094255 | 78 | 230 | 0.0 | 0.0 | 0.00 | 0.00 | 0.00 | 99 | 1013.9 |
| 20260905093754 | 78 | 129 | 0.0 | 0.0 | 0.00 | 0.00 | 0.00 | 99 | 1013.6 |
| 20260905093250 | 78 | 224 | 0.0 | 1.0 | 0.00 | 0.00 | 0.00 | 99 | 1013.7 |
| 20260905092746 | 78 | 217 | 0.0 | 1.0 | 0.00 | 0.00 | 0.00 | 99 | 1013.5 |
| 20260905092241 | 78 | 310 | 0.0 | 1.0 | 0.00 | 0.00 | 0.00 | 99 | 1013.6 |
| 20260905091740 | 78 | 268 | 0.0 | 1.0 | 0.00 | 0.00 | 0.00 | 99 | 1013.7 |
| 20260905091236 | 78 | 217 | 0.0 | 1.0 | 0.00 | 0.00 | 0.00 | 99 | 1013.4 |
| 20260905090734 | 78 | 315 | 0.0 | 1.0 | 0.00 | 0.00 | 0.00 | 99 | 1013.6 |
| 20260905090230 | 78 | 246 | 0.0 | 1.0 | 0.00 | 0.00 | 0.00 | 99 | 1013.5 |
| 20260905085729 | 78 | 207 | 0.0 | 2.0 | 0.00 | 0.00 | 0.00 | 99 | 1013.6 |
| 20260905085225 | 78 | 227 | 0.0 | 1.0 | 0.00 | 0.00 | 0.00 | 99 | 1013.8 |
| 20260905084724 | 78 | 242 | 0.0 | 0.0 | 0.00 | 0.00 | 0.00 | 99 | 1013.5 |
| 20260905084224 | 78 | 205 | 0.0 | 1.0 | 0.00 | 0.00 | 0.00 | 99 | 1013.5 |
| 20260905083719 | 78 | 235 | 0.0 | 0.0 | 0.00 | 0.00 | 0.00 | 99 | 1013.5 |
| 20260905083215 | 78 | 235 | 0.0 | 1.0 | 0.00 | 0.00 | 0.00 | 99 | 1013.4 |
| 20260905082711 | 78 | 230 | 0.0 | 0.0 | 0.00 | 0.00 | 0.00 | 99 | 1013.3 |
| 20260905082207 | 78 | 255 | 0.0 | 0.0 | 0.00 | 0.00 | 0.00 | 99 | 1013.2 |
| 20260905081706 | 78 | 255 | 0.0 | 0.0 | 0.00 | 0.00 | 0.00 | 99 | 1013.5 |
| 20260905081201 | 78 | 256 | 0.0 | 1.0 | 0.00 | 0.00 | 0.00 | 99 | 1013.6 |
| 20260905080701 | 78 | 255 | 0.0 | 0.0 | 0.00 | 0.00 | 0.00 | 99 | 1013.4 |
| 20260905080201 | 79 | 240 | 0.0 | 1.0 | 0.00 | 0.00 | 0.00 | 99 | 1013.3 |
| 20260905075700 | 78 | 230 | 0.0 | 0.0 | 0.00 | 0.00 | 0.00 | 99 | 1013.5 |
| 20260905075159 | 78 | 230 | 0.0 | 0.0 | 0.00 | 0.00 | 0.00 | 99 | 1013.5 |
| 20260905074658 | 78 | 230 | 0.0 | 0.0 | 0.00 | 0.00 | 0.00 | 99 | 1013.5 |
| 20260905074154 | 78 | 230 | 0.0 | 0.0 | 0.00 | 0.00 | 0.00 | 99 | 1013.5 |
| 20260905073650 | 79 | 230 | 0.0 | 0.0 | 0.00 | 0.00 | 0.00 | 99 | 1013.4 |
| 20260905073145 | 79 | 230 | 0.0 | 0.0 | 0.00 | 0.00 | 0.00 | 99 | 1013.5 |
| 20260905072645 | 79 | 230 | 0.0 | 0.0 | 0.00 | 0.00 | 0.00 | 99 | 1013.6 |
| 20260905072140 | 79 | 205 | 0.0 | 0.0 | 0.00 | 0.00 | 0.00 | 99 | 1013.7 |
| 20260905071637 | 79 | 205 | 0.0 | 0.0 | 0.00 | 0.00 | 0.00 | 99 | 1013.9 |
| 20260905071132 | 79 | 205 | 0.0 | 0.0 | 0.00 | 0.00 | 0.00 | 99 | 1013.9 |
| 20260905070627 | 79 | 205 | 0.0 | 1.0 | 0.00 | 0.00 | 0.00 | 99 | 1013.9 |
| 20260905070123 | 79 | 195 | 0.0 | 1.0 | 0.00 | 0.00 | 0.00 | 99 | 1013.9 |
| 20260905065621 | 79 | 212 | 0.0 | 0.0 | 0.00 | 0.00 | 0.00 | 99 | 1014.0 |
| 20260905065116 | 79 | 212 | 0.0 | 0.0 | 0.00 | 0.00 | 0.00 | 99 | 1014.3 |
| 20260905064611 | 79 | 212 | 0.0 | 0.0 | 0.00 | 0.00 | 0.00 | 99 | 1014.1 |
| 20260905064107 | 79 | 212 | 0.0 | 0.0 | 0.00 | 0.00 | 0.00 | 99 | 1014.2 |
| 20260905063605 | 79 | 212 | 0.0 | 0.0 | 0.00 | 0.00 | 0.00 | 99 | 1014.2 |
| 20260905063102 | 80 | 217 | 0.0 | 0.0 | 0.00 | 0.00 | 0.00 | 99 | 1014.1 |
| 20260905062557 | 80 | 217 | 0.0 | 1.0 | 0.00 | 0.00 | 0.00 | 99 | 1014.1 |
| 20260905062050 | 80 | 269 | 0.0 | 0.0 | 0.00 | 0.00 | 0.00 | 99 | 1014.1 |
| 20260905061546 | 80 | 242 | 0.0 | 1.0 | 0.00 | 0.00 | 0.00 | 99 | 1014.1 |
| 20260905061044 | 80 | 242 | 0.0 | 0.0 | 0.00 | 0.00 | 0.00 | 99 | 1014.3 |
| 20260905060541 | 80 | 205 | 0.0 | 0.0 | 0.00 | 0.00 | 0.00 | 99 | 1014.2 |
| 20260905060037 | 80 | 224 | 0.0 | 0.0 | 0.00 | 0.00 | 0.00 | 99 | 1014.2 |
| 20260905055535 | 80 | 224 | 0.0 | 0.0 | 0.00 | 0.00 | 0.00 | 98 | 1014.2 |
| 20260905055030 | 80 | 235 | 0.0 | 0.0 | 0.00 | 0.00 | 0.00 | 98 | 1014.3 |
| 20260905054526 | 80 | 235 | 0.0 | 0.0 | 0.00 | 0.00 | 0.00 | 98 | 1014.3 |
| 20260905054021 | 80 | 235 | 0.0 | 0.0 | 0.00 | 0.00 | 0.00 | 98 | 1014.3 |
| 20260905053521 | 80 | 235 | 0.0 | 0.0 | 0.00 | 0.00 | 0.00 | 98 | 1014.4 |
| 20260905053017 | 80 | 255 | 0.0 | 1.0 | 0.00 | 0.00 | 0.00 | 98 | 1014.2 |
| 20260905052515 | 80 | 235 | 0.0 | 0.0 | 0.00 | 0.00 | 0.00 | 97 | 1014.4 |
| 20260905052010 | 80 | 235 | 0.0 | 0.0 | 0.00 | 0.00 | 0.00 | 97 | 1014.4 |
| 20260905051506 | 81 | 205 | 0.0 | 1.0 | 0.00 | 0.00 | 0.00 | 97 | 1014.3 |
| 20260905051003 | 81 | 124 | 0.0 | 1.0 | 0.00 | 0.00 | 0.00 | 97 | 1014.2 |
| 20260905050458 | 81 | 127 | 0.0 | 1.0 | 0.00 | 0.00 | 0.00 | 97 | 1014.2 |
| 20260905045954 | 80 | 104 | 1.0 | 1.0 | 0.00 | 0.18 | 0.18 | 98 | 1014.2 |
| 20260905045449 | 81 | 217 | 0.0 | 0.0 | 0.00 | 0.18 | 0.18 | 98 | 1014.2 |
| 20260905044944 | 81 | 126 | 0.0 | 1.0 | 0.00 | 0.18 | 0.18 | 98 | 1014.2 |
| 20260905044439 | 81 | 142 | 0.0 | 1.0 | 0.00 | 0.18 | 0.18 | 98 | 1014.5 |
| 20260905043939 | 81 | 195 | 0.0 | 0.0 | 0.00 | 0.18 | 0.18 | 97 | 1014.4 |
| 20260905043438 | 81 | 195 | 0.0 | 0.0 | 0.00 | 0.18 | 0.18 | 97 | 1014.3 |
| 20260905042933 | 81 | 195 | 0.0 | 0.0 | 0.00 | 0.18 | 0.18 | 97 | 1014.4 |
| 20260905042427 | 81 | 195 | 0.0 | 1.0 | 0.00 | 0.18 | 0.18 | 97 | 1014.5 |
| 20260905041923 | 81 | 217 | 0.0 | 0.0 | 0.00 | 0.18 | 0.18 | 96 | 1014.6 |
| 20260905041418 | 81 | 217 | 0.0 | 0.0 | 0.00 | 0.18 | 0.18 | 96 | 1014.6 |
| 20260905040918 | 82 | 217 | 0.0 | 0.0 | 0.00 | 0.18 | 0.18 | 95 | 1014.7 |
| 20260905040412 | 82 | 217 | 0.0 | 1.0 | 0.00 | 0.18 | 0.18 | 95 | 1014.6 |
| 20260905035912 | 82 | 205 | 0.0 | 0.0 | 0.00 | 0.18 | 0.18 | 95 | 1014.7 |
| 20260905035407 | 82 | 217 | 0.0 | 1.0 | 0.00 | 0.18 | 0.18 | 95 | 1014.7 |
| 20260905034904 | 82 | 117 | 0.0 | 1.0 | 0.00 | 0.18 | 0.18 | 94 | 1014.7 |
| 20260905034359 | 82 | 230 | 0.0 | 0.0 | 0.00 | 0.18 | 0.18 | 94 | 1014.8 |
| 20260905033857 | 82 | 142 | 0.0 | 1.0 | 0.00 | 0.18 | 0.18 | 94 | 1014.7 |
| 20260905033353 | 82 | 217 | 0.0 | 2.0 | 0.00 | 0.18 | 0.18 | 94 | 1014.5 |
| 20260905032852 | 83 | 212 | 0.0 | 2.0 | 0.00 | 0.18 | 0.18 | 93 | 1014.5 |
| 20260905032348 | 83 | 119 | 0.0 | 3.0 | 0.00 | 0.18 | 0.18 | 93 | 1014.7 |
| 20260905031843 | 83 | 194 | 1.0 | 3.0 | 0.00 | 0.18 | 0.18 | 93 | 1014.7 |
| 20260905031339 | 83 | 190 | 0.0 | 3.0 | 0.00 | 0.18 | 0.18 | 93 | 1014.5 |
| 20260905030834 | 83 | 135 | 2.0 | 3.0 | 0.00 | 0.18 | 0.18 | 93 | 1014.9 |
| 20260905030330 | 83 | 211 | 0.0 | 0.0 | 0.00 | 0.18 | 0.18 | 92 | 1014.5 |
| 20260905025829 | 83 | 205 | 0.0 | 1.0 | 0.00 | 0.18 | 0.18 | 92 | 1014.7 |
| 20260905025324 | 83 | 104 | 0.0 | 2.0 | 0.00 | 0.18 | 0.18 | 92 | 1014.6 |
| 20260905024821 | 83 | 217 | 0.0 | 1.0 | 0.00 | 0.18 | 0.18 | 91 | 1014.4 |
| 20260905024315 | 83 | 199 | 0.0 | 1.0 | 0.00 | 0.18 | 0.18 | 91 | 1014.5 |
| 20260905023811 | 83 | 202 | 0.0 | 1.0 | 0.00 | 0.18 | 0.18 | 91 | 1014.6 |
| 20260905023306 | 83 | 214 | 0.0 | 2.0 | 0.00 | 0.18 | 0.18 | 90 | 1014.4 |
| 20260905022805 | 84 | 206 | 1.0 | 2.0 | 0.00 | 0.18 | 0.18 | 90 | 1014.5 |
| 20260905022300 | 84 | 230 | 0.0 | 2.0 | 0.00 | 0.18 | 0.18 | 90 | 1014.3 |
| 20260905021755 | 84 | 202 | 0.0 | 4.0 | 0.00 | 0.18 | 0.18 | 89 | 1014.3 |
| 20260905021250 | 84 | 194 | 1.0 | 3.0 | 0.00 | 0.18 | 0.18 | 89 | 1014.4 |
| 20260905020750 | 84 | 193 | 1.0 | 4.0 | 0.00 | 0.18 | 0.18 | 88 | 1014.0 |
| 20260905020245 | 84 | 195 | 0.0 | 2.0 | 0.00 | 0.18 | 0.18 | 88 | 1014.2 |
| 20260905015744 | 84 | 211 | 2.0 | 2.0 | 0.00 | 0.18 | 0.18 | 88 | 1014.2 |
| 20260905015238 | 84 | 168 | 1.0 | 5.0 | 0.00 | 0.18 | 0.18 | 87 | 1014.0 |
| 20260905014737 | 84 | 232 | 1.0 | 3.0 | 0.00 | 0.18 | 0.18 | 87 | 1014.1 |
| 20260905014233 | 84 | 179 | 0.0 | 2.0 | 0.00 | 0.18 | 0.18 | 86 | 1013.9 |
| 20260905013728 | 85 | 154 | 0.0 | 4.0 | 0.00 | 0.18 | 0.18 | 86 | 1014.0 |
| 20260905013224 | 85 | 207 | 1.0 | 4.0 | 0.00 | 0.18 | 0.18 | 86 | 1013.8 |
| 20260905012720 | 85 | 203 | 1.0 | 2.0 | 0.00 | 0.18 | 0.18 | 86 | 1013.8 |
| 20260905012215 | 85 | 180 | 1.0 | 2.0 | 0.00 | 0.18 | 0.18 | 86 | 1013.8 |
| 20260905011713 | 85 | 235 | 0.0 | 2.0 | 0.00 | 0.18 | 0.18 | 86 | 1013.7 |
| 20260905011208 | 85 | 218 | 0.0 | 2.0 | 0.00 | 0.18 | 0.18 | 86 | 1013.7 |
| 20260905010707 | 85 | 214 | 1.0 | 4.0 | 0.00 | 0.18 | 0.18 | 85 | 1013.7 |
| 20260905010203 | 85 | 160 | 2.0 | 3.0 | 0.00 | 0.18 | 0.18 | 85 | 1013.5 |
| 20260905005700 | 86 | 124 | 1.0 | 3.0 | 0.00 | 0.18 | 0.18 | 85 | 1013.4 |
| 20260905005155 | 86 | 141 | 0.0 | 2.0 | 0.00 | 0.18 | 0.18 | 85 | 1013.5 |
| 20260905004649 | 86 | 155 | 3.0 | 4.0 | 0.00 | 0.18 | 0.18 | 84 | 1013.6 |
| 20260905004144 | 86 | 193 | 1.0 | 8.0 | 0.00 | 0.18 | 0.18 | 84 | 1013.7 |
| 20260905003640 | 86 | 191 | 0.0 | 6.0 | 0.00 | 0.18 | 0.18 | 84 | 1013.5 |
| 20260905003135 | 86 | 206 | 1.0 | 3.0 | 0.00 | 0.18 | 0.18 | 84 | 1013.3 |
| 20260905002631 | 86 | 164 | 4.0 | 5.0 | 0.00 | 0.18 | 0.18 | 84 | 1013.4 |
| 20260905002125 | 87 | 180 | 1.0 | 3.0 | 0.00 | 0.18 | 0.18 | 83 | 1013.3 |
| 20260905001621 | 87 | 176 | 0.0 | 7.0 | 0.00 | 0.18 | 0.18 | 84 | 1013.3 |
| 20260905001120 | 87 | 218 | 0.0 | 4.0 | 0.00 | 0.18 | 0.18 | 83 | 1013.3 |
| 20260905000616 | 87 | 137 | 4.0 | 5.0 | 0.00 | 0.18 | 0.18 | 83 | 1013.1 |
| 20260905000112 | 87 | 143 | 4.0 | 7.0 | 0.00 | 0.18 | 0.18 | 82 | 1013.2 |
| 20260904235606 | 87 | 152 | 2.0 | 7.0 | 0.00 | 0.18 | 0.18 | 82 | 1013.3 |
| 20260904235105 | 87 | 179 | 1.0 | 4.0 | 0.00 | 0.18 | 0.18 | 82 | 1013.4 |
| 20260904234600 | 87 | 135 | 2.0 | 8.0 | 0.00 | 0.18 | 0.18 | 82 | 1013.2 |
| 20260904234056 | 88 | 184 | 2.0 | 7.0 | 0.00 | 0.18 | 0.18 | 81 | 1013.2 |
| 20260904233556 | 88 | 217 | 2.0 | 5.0 | 0.00 | 0.18 | 0.18 | 81 | 1013.1 |
| 20260904233052 | 88 | 155 | 1.0 | 6.0 | 0.00 | 0.18 | 0.18 | 80 | 1013.3 |
| 20260904232549 | 88 | 239 | 2.0 | 9.0 | 0.00 | 0.18 | 0.18 | 80 | 1013.0 |
| 20260904232045 | 89 | 132 | 4.0 | 10.0 | 0.00 | 0.18 | 0.18 | 79 | 1013.4 |
| 20260904231540 | 89 | 200 | 3.0 | 5.0 | 0.00 | 0.18 | 0.18 | 79 | 1013.2 |
| 20260904231036 | 89 | 108 | 3.0 | 8.0 | 0.00 | 0.18 | 0.18 | 78 | 1013.3 |
| 20260904230534 | 89 | 160 | 2.0 | 5.0 | 0.00 | 0.18 | 0.18 | 78 | 1013.4 |
| 20260904230031 | 89 | 144 | 4.0 | 9.0 | 0.00 | 0.18 | 0.18 | 78 | 1013.1 |
| 20260904225528 | 90 | 165 | 2.0 | 4.0 | 0.00 | 0.18 | 0.18 | 79 | 1013.0 |
| 20260904225028 | 91 | 238 | 0.0 | 7.0 | 0.00 | 0.18 | 0.18 | 78 | 1013.4 |
| 20260904224523 | 90 | 158 | 2.0 | 8.0 | 0.00 | 0.18 | 0.18 | 78 | 1013.2 |
| 20260904224023 | 91 | 150 | 4.0 | 7.0 | 0.00 | 0.18 | 0.18 | 78 | 1013.4 |
| 20260904223521 | 91 | 212 | 2.0 | 5.0 | 0.00 | 0.18 | 0.18 | 77 | 1013.3 |
| 20260904223018 | 92 | 174 | 4.0 | 5.0 | 0.00 | 0.18 | 0.18 | 76 | 1013.3 |
| 20260904222513 | 91 | 232 | 1.0 | 7.0 | 0.00 | 0.18 | 0.18 | 78 | 1013.5 |
| 20260904222008 | 91 | 95 | 1.0 | 12.0 | 0.00 | 0.18 | 0.18 | 79 | 1013.2 |
| 20260904221503 | 90 | 155 | 2.0 | 6.0 | 0.00 | 0.18 | 0.18 | 78 | 1013.2 |
| 20260904220957 | 90 | 154 | 2.0 | 11.0 | 0.00 | 0.18 | 0.18 | 80 | 1013.0 |
| 20260904220457 | 90 | 129 | 1.0 | 5.0 | 0.00 | 0.18 | 0.18 | 80 | 1013.1 |
| 20260904215952 | 89 | 179 | 2.0 | 8.0 | 0.00 | 0.18 | 0.18 | 80 | 1013.2 |
| 20260904215448 | 89 | 105 | 1.0 | 7.0 | 0.00 | 0.18 | 0.18 | 81 | 1013.2 |
| 20260904214943 | 90 | 171 | 2.0 | 7.0 | 0.00 | 0.18 | 0.18 | 78 | 1013.3 |
| 20260904214438 | 90 | 158 | 5.0 | 8.0 | 0.00 | 0.18 | 0.18 | 77 | 1013.2 |
| 20260904213933 | 91 | 175 | 2.0 | 8.0 | 0.00 | 0.18 | 0.18 | 75 | 1013.1 |
| 20260904213426 | 91 | 191 | 1.0 | 9.0 | 0.00 | 0.18 | 0.18 | 76 | 1013.3 |
| 20260904212923 | 92 | 160 | 2.0 | 5.0 | 0.00 | 0.18 | 0.18 | 75 | 1013.6 |
| 20260904212422 | 92 | 94 | 5.0 | 11.0 | 0.00 | 0.18 | 0.18 | 74 | 1013.8 |
| 20260904211918 | 92 | 178 | 3.0 | 7.0 | 0.00 | 0.18 | 0.18 | 72 | 1013.5 |
| 20260904211413 | 92 | 168 | 4.0 | 8.0 | 0.00 | 0.18 | 0.18 | 72 | 1013.4 |
| 20260904210908 | 92 | 176 | 3.0 | 6.0 | 0.00 | 0.18 | 0.18 | 72 | 1013.5 |
| 20260904210407 | 92 | 189 | 3.0 | 5.0 | 0.00 | 0.18 | 0.18 | 72 | 1013.8 |
| 20260904205903 | 93 | 191 | 2.0 | 5.0 | 0.00 | 0.18 | 0.18 | 74 | 1013.8 |
| 20260904205358 | 92 | 186 | 2.0 | 5.0 | 0.00 | 0.18 | 0.18 | 74 | 1014.0 |
| 20260904204855 | 93 | 180 | 2.0 | 4.0 | 0.00 | 0.18 | 0.18 | 74 | 1013.9 |
| 20260904204351 | 92 | 201 | 2.0 | 7.0 | 0.00 | 0.18 | 0.18 | 75 | 1014.0 |
| 20260904203847 | 91 | 203 | 0.0 | 5.0 | 0.00 | 0.18 | 0.18 | 76 | 1014.0 |
| 20260904203343 | 90 | 218 | 1.0 | 4.0 | 0.00 | 0.18 | 0.18 | 77 | 1014.1 |
| 20260904202839 | 91 | 149 | 3.0 | 5.0 | 0.00 | 0.18 | 0.18 | 75 | 1014.1 |
| 20260904202335 | 90 | 259 | 0.0 | 4.0 | 0.00 | 0.18 | 0.18 | 80 | 1014.2 |